EW2918 Weather Reports


Display with metric or nautical units.
time (UTC)temp
F
wind
direction
speed
MPH
gust
MPH
rain 1hr
in
rain 24hr
in
rain mn
in
humidity
%
barometer
mb
20211129114804 37 0 0.0 0.0 0.00 0.00 0.00 80 1016.8
20211129114305 37 0 0.0 0.0 0.00 0.00 0.00 80 1016.8
20211129113804 37 0 0.0 0.0 0.00 0.00 0.00 80 1016.7
20211129113305 37 0 0.0 0.0 0.00 0.00 0.00 80 1016.6
20211129111806 37 0 0.0 0.0 0.00 0.00 0.00 80 1016.6
20211129111304 37 0 0.0 0.0 0.00 0.00 0.00 80 1016.4
20211129110805 37 0 0.0 0.0 0.00 0.00 0.00 80 1016.0
20211129110305 37 0 0.0 0.0 0.00 0.00 0.00 80 1016.0
20211129104804 37 0 0.0 0.0 0.00 0.00 0.00 80 1015.8
20211129104305 37 0 0.0 0.0 0.00 0.00 0.00 80 1015.5
20211129103804 37 0 0.0 0.0 0.00 0.00 0.00 80 1015.5
20211129103304 37 0 0.0 0.0 0.00 0.00 0.00 80 1015.5
20211129101805 37 0 0.0 0.0 0.00 0.00 0.00 80 1015.0
20211129101304 37 0 0.0 0.0 0.00 0.00 0.00 80 1015.0
20211129100804 37 0 0.0 0.0 0.00 0.00 0.00 80 1015.0
20211129100305 37 0 0.0 0.0 0.00 0.00 0.00 80 1014.9
20211129094804 37 0 0.0 0.0 0.00 0.00 0.00 80 1014.7
20211129094304 37 0 0.0 0.0 0.00 0.00 0.00 80 1014.7
20211129093804 37 0 0.0 0.0 0.00 0.00 0.00 80 1014.6
20211129093305 37 0 0.0 0.0 0.00 0.00 0.00 80 1014.6
20211129091804 37 0 0.0 0.0 0.00 0.00 0.00 80 1014.3
20211129091304 37 0 0.0 0.0 0.00 0.00 0.00 80 1014.2
20211129090804 37 0 0.0 0.0 0.00 0.00 0.00 80 1014.2
20211129090305 37 0 0.0 0.0 0.00 0.00 0.00 80 1014.2
20211129084804 37 0 0.0 0.0 0.00 0.00 0.00 80 1014.1
20211129084305 37 0 0.0 0.0 0.00 0.00 0.00 80 1014.1
20211129083804 37 0 0.0 0.0 0.00 0.00 0.00 80 1014.0
20211129083304 37 0 0.0 0.0 0.00 0.00 0.00 80 1014.0
20211129081805 37 0 0.0 0.0 0.00 0.00 0.00 80 1013.9
20211129081304 37 0 0.0 0.0 0.00 0.00 0.00 80 1013.9
20211129080804 37 0 0.0 0.0 0.00 0.00 0.00 80 1013.9
20211129080304 37 0 0.0 0.0 0.00 0.00 0.00 80 1013.9
20211129074804 37 12 0.0 0.0 0.00 0.00 0.00 80 1013.9
20211129074304 37 259 0.0 0.0 0.00 0.00 0.00 80 1013.9
20211129073804 37 259 0.0 0.0 0.00 0.00 0.00 80 1013.9
20211129073304 38 262 0.0 0.0 0.00 0.00 0.00 80 1013.8
20211129071803 38 262 0.0 0.0 0.00 0.00 0.00 77 1013.6
20211129071304 38 262 0.0 0.0 0.00 0.00 0.00 76 1013.5
20211129070804 38 262 0.0 0.0 0.00 0.00 0.00 76 1013.6
20211129070304 39 262 0.0 0.0 0.00 0.00 0.00 74 1013.6
20211129064804 39 262 0.0 0.0 0.00 0.00 0.00 70 1013.6
20211129064304 39 262 0.0 0.0 0.00 0.00 0.00 72 1013.6
20211129063803 39 262 0.0 0.0 0.00 0.00 0.00 75 1013.4
20211129063303 40 262 0.0 0.0 0.00 0.00 0.00 73 1013.5
20211129061804 40 262 0.0 0.0 0.00 0.00 0.00 68 1013.4
20211129061304 40 262 0.0 0.0 0.00 0.00 0.00 68 1013.5
20211129060808 41 262 0.0 0.0 0.00 0.00 0.00 69 1013.5
20211129060308 41 262 0.0 0.0 0.00 0.00 0.00 71 1013.3
20211129054808 42 262 0.0 1.0 0.00 0.00 0.00 67 1013.5
20211129054308 42 262 0.0 1.0 0.00 0.00 0.00 64 1013.5
20211129053808 42 262 0.0 0.0 0.00 0.00 0.00 58 1013.6
20211129053307 42 262 0.0 1.0 0.00 0.00 0.00 59 1013.6
20211129051808 42 262 0.0 0.0 0.00 0.00 0.00 59 1013.6
20211129051307 42 262 0.0 0.0 0.00 0.00 0.00 63 1013.6
20211129050819 43 262 0.0 0.0 0.00 0.00 0.00 62 1013.6
20211129050308 43 262 0.0 0.0 0.00 0.00 0.00 66 1013.6
20211129044808 42 262 0.0 0.0 0.00 0.00 0.00 68 1013.6
20211129044308 42 262 0.0 0.0 0.00 0.00 0.00 70 1013.6
20211129043807 42 262 0.0 0.0 0.00 0.00 0.00 77 1013.7
20211129043308 42 262 0.0 0.0 0.00 0.00 0.00 78 1013.8
20211129041808 41 262 0.0 1.0 0.00 0.00 0.00 78 1013.9
20211129041307 41 262 0.0 1.0 0.00 0.00 0.00 81 1013.8
20211129040807 41 262 0.0 0.0 0.00 0.00 0.00 80 1013.8
20211129040308 41 262 0.0 0.0 0.00 0.00 0.00 79 1013.9
20211129034807 42 262 0.0 0.0 0.00 0.00 0.00 80 1014.0
20211129034308 42 262 0.0 0.0 0.00 0.00 0.00 80 1014.0
20211129033808 42 262 0.0 0.0 0.00 0.00 0.00 79 1013.9
20211129033308 42 262 0.0 0.0 0.00 0.00 0.00 79 1013.9
20211129031808 42 262 0.0 0.0 0.00 0.00 0.00 76 1013.8
20211129031308 42 262 0.0 0.0 0.00 0.00 0.00 76 1013.8
20211129030807 42 262 0.0 0.0 0.00 0.00 0.00 77 1013.7
20211129030307 42 262 0.0 1.0 0.00 0.00 0.00 78 1013.6
20211129024807 43 262 0.0 0.0 0.00 0.00 0.00 79 1013.7
20211129024307 43 262 0.0 0.0 0.00 0.00 0.00 78 1013.7
20211129023807 43 262 0.0 0.0 0.00 0.00 0.00 77 1013.8
20211129023307 43 262 0.0 0.0 0.00 0.00 0.00 79 1013.7
20211129021807 44 262 0.0 0.0 0.00 0.00 0.00 80 1013.6
20211129021307 44 262 0.0 0.0 0.00 0.00 0.00 79 1013.6
20211129020807 45 262 0.0 0.0 0.00 0.00 0.00 78 1013.6
20211129020307 45 262 0.0 0.0 0.00 0.00 0.00 76 1013.6
20211129014808 45 262 0.0 0.0 0.00 0.00 0.00 77 1013.5
20211129014307 45 262 0.0 0.0 0.00 0.00 0.00 77 1013.6
20211129013808 46 262 0.0 0.0 0.00 0.00 0.00 76 1013.6
20211129013307 46 262 0.0 0.0 0.00 0.00 0.00 76 1013.5
20211129011807 46 262 0.0 0.0 0.00 0.00 0.00 74 1013.4
20211129011307 46 262 0.0 0.0 0.00 0.00 0.00 73 1013.5
20211129010807 46 262 0.0 0.0 0.00 0.00 0.00 73 1013.6
20211129010307 46 262 0.0 0.0 0.00 0.00 0.00 74 1013.4
20211129004807 46 262 0.0 1.0 0.00 0.00 0.00 70 1013.2
20211129004308 46 262 0.0 1.0 0.00 0.00 0.00 74 1013.3
20211129003807 46 262 0.0 0.0 0.00 0.00 0.00 69 1013.3
20211129003307 46 262 0.0 0.0 0.00 0.00 0.00 70 1013.4
20211129001806 47 262 0.0 0.0 0.00 0.00 0.00 70 1013.3
20211129001307 47 262 0.0 0.0 0.00 0.00 0.00 71 1013.2
20211129000807 47 262 0.0 0.0 0.00 0.00 0.00 70 1013.3
20211129000309 47 262 0.0 0.0 0.00 0.00 0.00 71 1013.3
20211128234807 48 262 0.0 0.0 0.00 0.00 0.00 65 1013.2
20211128234306 49 262 0.0 0.0 0.00 0.00 0.00 67 1013.2
20211128233807 50 262 0.0 0.0 0.00 0.00 0.00 60 1013.1
20211128233308 50 262 0.0 0.0 0.00 0.00 0.00 56 1013.1
20211128231806 51 262 0.0 0.0 0.00 0.00 0.00 54 1012.8
20211128231307 51 262 0.0 0.0 0.00 0.00 0.00 52 1012.8
20211128230807 51 262 0.0 0.0 0.00 0.00 0.00 50 1012.8
20211128230307 52 262 0.0 0.0 0.00 0.00 0.00 51 1012.7
20211128224807 52 262 0.0 0.0 0.00 0.00 0.00 51 1012.6
20211128224307 53 262 0.0 0.0 0.00 0.00 0.00 52 1012.7
20211128223807 53 262 0.0 0.0 0.00 0.00 0.00 53 1012.6
20211128223306 53 262 0.0 0.0 0.00 0.00 0.00 52 1012.6
20211128221806 55 262 0.0 0.0 0.00 0.00 0.00 51 1012.6
20211128221306 55 262 0.0 0.0 0.00 0.00 0.00 50 1012.5
20211128220808 56 262 0.0 0.0 0.00 0.00 0.00 53 1012.5
20211128220307 56 262 0.0 0.0 0.00 0.00 0.00 51 1012.4
20211128214806 58 262 0.0 0.0 0.00 0.00 0.00 47 1012.3
20211128214306 58 262 0.0 0.0 0.00 0.00 0.00 48 1012.3
20211128213806 59 262 0.0 0.0 0.00 0.00 0.00 47 1012.4
20211128213306 59 262 0.0 0.0 0.00 0.00 0.00 41 1012.2
20211128211806 59 262 0.0 1.0 0.00 0.00 0.00 52 1012.1
20211128211307 60 262 0.0 1.0 0.00 0.00 0.00 47 1012.1
20211128210806 60 262 0.0 0.0 0.00 0.00 0.00 54 1012.0
20211128210306 60 262 0.0 1.0 0.00 0.00 0.00 54 1012.0
20211128204806 61 262 0.0 0.0 0.00 0.00 0.00 49 1012.0
20211128204306 61 262 0.0 1.0 0.00 0.00 0.00 51 1012.2
20211128203806 61 262 0.0 1.0 0.00 0.00 0.00 49 1012.2
20211128203306 61 301 0.0 0.0 0.00 0.00 0.00 48 1012.1
20211128201807 62 301 0.0 1.0 0.00 0.00 0.00 42 1012.3
20211128201306 62 301 0.0 1.0 0.00 0.00 0.00 40 1012.3
20211128200807 62 301 0.0 2.0 0.00 0.00 0.00 37 1012.2
20211128200306 63 301 1.0 3.0 0.00 0.00 0.00 37 1012.1
20211128194806 63 301 0.0 3.0 0.00 0.00 0.00 38 1012.2
20211128194307 63 301 0.0 1.0 0.00 0.00 0.00 38 1012.1
20211128193806 63 301 1.0 1.0 0.00 0.00 0.00 37 1012.3
20211128193306 63 301 1.0 1.0 0.00 0.00 0.00 38 1012.2
20211128191806 63 301 1.0 2.0 0.00 0.00 0.00 38 1012.3
20211128191306 63 301 0.0 1.0 0.00 0.00 0.00 39 1012.4
20211128190806 63 301 0.0 1.0 0.00 0.00 0.00 38 1012.5
20211128190306 63 301 0.0 1.0 0.00 0.00 0.00 40 1012.4
20211128184805 62 301 0.0 1.0 0.00 0.00 0.00 39 1012.5
20211128184306 62 301 0.0 1.0 0.00 0.00 0.00 40 1012.4
20211128183806 62 301 0.0 1.0 0.00 0.00 0.00 38 1012.5
20211128183308 62 301 0.0 1.0 0.00 0.00 0.00 37 1012.7
20211128181806 62 301 0.0 1.0 0.00 0.00 0.00 38 1013.0
20211128181305 62 301 0.0 1.0 0.00 0.00 0.00 38 1013.0
20211128180806 63 301 0.0 1.0 0.00 0.00 0.00 37 1013.0
20211128180307 62 301 0.0 1.0 0.00 0.00 0.00 38 1013.0
20211128174806 64 301 0.0 1.0 0.00 0.00 0.00 36 1013.3
20211128174305 64 301 0.0 1.0 0.00 0.00 0.00 37 1013.4
20211128173805 64 301 1.0 1.0 0.00 0.00 0.00 37 1013.6
20211128173306 64 301 0.0 1.0 0.00 0.00 0.00 37 1013.7
20211128171806 62 301 1.0 3.0 0.00 0.00 0.00 39 1014.1
20211128171306 61 301 0.0 1.0 0.00 0.00 0.00 40 1014.2
20211128170807 61 301 0.0 1.0 0.00 0.00 0.00 43 1014.3
20211128170306 60 301 0.0 1.0 0.00 0.00 0.00 43 1014.4
20211128164805 58 301 0.0 1.0 0.00 0.00 0.00 46 1014.7
20211128164306 58 301 0.0 1.0 0.00 0.00 0.00 44 1014.8
20211128163806 57 301 0.0 1.0 0.00 0.00 0.00 46 1014.9
20211128163305 58 301 0.0 1.0 0.00 0.00 0.00 51 1014.9
20211128161805 57 301 0.0 0.0 0.00 0.00 0.00 52 1015.2
20211128161306 57 301 0.0 1.0 0.00 0.00 0.00 48 1015.2
20211128160805 57 301 0.0 1.0 0.00 0.00 0.00 49 1015.2
20211128160305 57 301 0.0 2.0 0.00 0.00 0.00 47 1015.2
20211128154805 57 301 0.0 1.0 0.00 0.00 0.00 56 1015.2
20211128154306 56 301 0.0 2.0 0.00 0.00 0.00 53 1015.3
20211128153805 56 301 0.0 2.0 0.00 0.00 0.00 50 1015.4
20211128153305 56 301 0.0 1.0 0.00 0.00 0.00 52 1015.5
20211128151806 55 301 0.0 1.0 0.00 0.00 0.00 52 1015.6
20211128151306 55 301 0.0 1.0 0.00 0.00 0.00 54 1015.6
20211128150805 54 301 0.0 1.0 0.00 0.00 0.00 50 1015.6
20211128150306 54 301 0.0 1.0 0.00 0.00 0.00 48 1015.7
20211128144805 52 301 0.0 2.0 0.00 0.00 0.00 55 1015.7
20211128144305 52 301 0.0 2.0 0.00 0.00 0.00 68 1015.8
20211128143805 51 301 0.0 1.0 0.00 0.00 0.00 66 1015.8
20211128143305 50 301 0.0 1.0 0.00 0.00 0.00 70 1015.8
20211128141805 49 301 0.0 1.0 0.00 0.00 0.00 71 1015.8
20211128141305 48 301 0.0 1.0 0.00 0.00 0.00 71 1015.8
20211128140805 48 301 0.0 1.0 0.00 0.00 0.00 71 1015.6
20211128140304 47 301 0.0 0.0 0.00 0.00 0.00 73 1015.7
20211128134805 45 301 0.0 0.0 0.00 0.00 0.00 73 1015.6
20211128134305 45 301 0.0 0.0 0.00 0.00 0.00 74 1015.6
20211128133805 44 301 0.0 0.0 0.00 0.00 0.00 76 1015.6
20211128133305 43 301 0.0 0.0 0.00 0.00 0.00 65 1015.5
20211128131805 41 301 0.0 0.0 0.00 0.00 0.00 76 1015.4
20211128131305 42 321 0.0 0.0 0.00 0.00 0.00 65 1015.5
20211128130805 43 0 0.0 0.0 0.00 0.00 0.00 62 1015.5
20211128130305 43 0 0.0 0.0 0.00 0.00 0.00 62 1015.4
20211128124805 43 0 0.0 0.0 0.00 0.00 0.00 62 1015.2
20211128124304 43 0 0.0 0.0 0.00 0.00 0.00 62 1015.1
20211128123804 43 0 0.0 0.0 0.00 0.00 0.00 62 1015.1
20211128123305 43 0 0.0 0.0 0.00 0.00 0.00 62 1015.0
20211128121804 43 0 0.0 0.0 0.00 0.00 0.00 62 1014.9
20211128121304 43 0 0.0 0.0 0.00 0.00 0.00 62 1014.8
20211128120805 43 0 0.0 0.0 0.00 0.00 0.00 62 1014.8
20211128120305 43 0 0.0 0.0 0.00 0.00 0.00 62 1014.6